• In Slovakia
  • List of Countries
  • For 7 days
  • Water Temperature
  • Satellite Maps
  • Weather Map
  • Weather Widgets
  • user-avatar
    Login

    Hourly Weather Viedma

    Today, 16 January, Tuesday

    Time Temperature Precipitation Wind Pressure Humidity
    00:00 +26°C° 0.4 mm 4 mps 755 mmHg 37%
    01:00 +25°C° 0.4 mm 4 mps 754 mmHg 36%
    02:00 +24°C° 0 mm 3 mps 754 mmHg 36%
    03:00 +23°C° 0.1 mm 4 mps 755 mmHg 35%
    04:00 +23°C° 0.1 mm 4 mps 755 mmHg 35%
    05:00 +23°C° 0.1 mm 5 mps 755 mmHg 34%
    06:00 +25°C° 0.2 mm 5 mps 755 mmHg 35%
    07:00 +26°C° 0.2 mm 5 mps 755 mmHg 35%
    08:00 +28°C° 0 mm 4 mps 755 mmHg 35%
    09:00 +29°C° 0.1 mm 4 mps 755 mmHg 32%
    10:00 +32°C° 0.1 mm 5 mps 755 mmHg 29%
    11:00 +33°C° 0.1 mm 5 mps 755 mmHg 25%
    12:00 +34°C° 0 mm 5 mps 755 mmHg 24%
    13:00 +34°C° 0 mm 6 mps 754 mmHg 23%
    14:00 +34°C° 0 mm 6 mps 754 mmHg 22%
    15:00 +34°C° 0 mm 6 mps 754 mmHg 23%
    16:00 +33°C° 0 mm 5 mps 754 mmHg 24%
    17:00 +33°C° 0 mm 5 mps 753 mmHg 26%
    18:00 +30°C° 0 mm 5 mps 753 mmHg 31%
    19:00 +28°C° 0 mm 5 mps 753 mmHg 36%
    20:00 +26°C° 0 mm 5 mps 753 mmHg 41%
    21:00 +25°C° 0 mm 4 mps 753 mmHg 42%
    22:00 +25°C° 0 mm 4 mps 753 mmHg 43%
    23:00 +25°C° 0 mm 3 mps 753 mmHg 44%

    Tomorrow, 17 January, Wednesday

    Time Temperature Precipitation Wind Pressure Humidity
    00:00 +24°C° 0 mm 3 mps 753 mmHg 46%
    01:00 +24°C° 0 mm 3 mps 753 mmHg 48%
    02:00 +24°C° 0 mm 3 mps 753 mmHg 50%
    03:00 +22°C° 0 mm 4 mps 754 mmHg 52%
    04:00 +22°C° 0 mm 4 mps 754 mmHg 55%
    05:00 +21°C° 0 mm 5 mps 754 mmHg 57%
    06:00 +23°C° 0 mm 6 mps 755 mmHg 51%
    07:00 +24°C° 0 mm 7 mps 755 mmHg 45%
    08:00 +26°C° 0 mm 8 mps 756 mmHg 38%
    09:00 +27°C° 0 mm 8 mps 756 mmHg 36%
    10:00 +27°C° 0 mm 8 mps 756 mmHg 33%
    11:00 +28°C° 0 mm 7 mps 756 mmHg 31%
    12:00 +28°C° 0 mm 6 mps 756 mmHg 30%
    13:00 +29°C° 0 mm 6 mps 756 mmHg 29%
    14:00 +29°C° 0 mm 5 mps 756 mmHg 29%
    15:00 +29°C° 0 mm 4 mps 756 mmHg 28%
    16:00 +29°C° 0 mm 3 mps 755 mmHg 27%
    17:00 +29°C° 0 mm 3 mps 755 mmHg 27%
    18:00 +28°C° 0 mm 3 mps 755 mmHg 29%
    19:00 +27°C° 0 mm 3 mps 755 mmHg 31%
    20:00 +26°C° 0 mm 3 mps 755 mmHg 33%
    21:00 +25°C° 0 mm 4 mps 755 mmHg 36%
    22:00 +23°C° 0 mm 4 mps 755 mmHg 40%
    23:00 +23°C° 0 mm 5 mps 755 mmHg 43%

    Day after tomorrow, 18 January, Thursday

    Time Temperature Precipitation Wind Pressure Humidity
    00:00 +22°C° 0 mm 5 mps 756 mmHg 46%
    01:00 +22°C° 0 mm 5 mps 756 mmHg 49%
    02:00 +22°C° 0 mm 4 mps 756 mmHg 52%
    03:00 +21°C° 0 mm 4 mps 756 mmHg 52%
    04:00 +21°C° 0 mm 3 mps 757 mmHg 52%
    05:00 +21°C° 0 mm 3 mps 757 mmHg 52%
    06:00 +22°C° 0 mm 4 mps 757 mmHg 46%
    07:00 +25°C° 0 mm 4 mps 757 mmHg 41%
    08:00 +27°C° 0 mm 5 mps 758 mmHg 35%
    09:00 +27°C° 0 mm 5 mps 758 mmHg 34%
    10:00 +28°C° 0 mm 5 mps 758 mmHg 32%
    11:00 +29°C° 0 mm 5 mps 758 mmHg 31%
    12:00 +29°C° 0 mm 5 mps 757 mmHg 30%
    13:00 +30°C° 0 mm 5 mps 757 mmHg 30%
    14:00 +30°C° 0 mm 5 mps 757 mmHg 29%
    15:00 +30°C° 0 mm 5 mps 757 mmHg 29%
    16:00 +29°C° 0 mm 4 mps 757 mmHg 29%
    17:00 +29°C° 0 mm 4 mps 756 mmHg 29%
    18:00 +28°C° 0 mm 4 mps 757 mmHg 32%
    19:00 +27°C° 0 mm 4 mps 757 mmHg 35%
    20:00 +26°C° 0 mm 3 mps 757 mmHg 38%
    21:00 +25°C° 0 mm 4 mps 757 mmHg 41%
    22:00 +23°C° 0 mm 5 mps 757 mmHg 44%
    23:00 +22°C° 0 mm 5 mps 757 mmHg 46%

    19 January, Friday

    Time Temperature Precipitation Wind Pressure Humidity
    00:00 +22°C° 0 mm 5 mps 757 mmHg 48%
    01:00 +22°C° 0 mm 5 mps 756 mmHg 50%
    02:00 +22°C° 0 mm 5 mps 756 mmHg 52%
    03:00 +21°C° 0 mm 4 mps 756 mmHg 52%
    04:00 +21°C° 0 mm 4 mps 757 mmHg 53%
    05:00 +21°C° 0 mm 4 mps 757 mmHg 54%
    06:00 +24°C° 0 mm 3 mps 757 mmHg 49%
    07:00 +25°C° 0 mm 2 mps 757 mmHg 43%
    08:00 +27°C° 0 mm 2 mps 757 mmHg 38%
    09:00 +29°C° 0 mm 2 mps 757 mmHg 34%
    10:00 +31°C° 0 mm 2 mps 757 mmHg 30%
    11:00 +34°C° 0 mm 2 mps 757 mmHg 26%
    12:00 +34°C° 0 mm 3 mps 756 mmHg 25%
    13:00 +35°C° 0 mm 4 mps 756 mmHg 24%
    14:00 +36°C° 0 mm 5 mps 755 mmHg 23%
    15:00 +35°C° 0 mm 5 mps 755 mmHg 24%
    16:00 +34°C° 0 mm 5 mps 754 mmHg 26%
    17:00 +34°C° 0 mm 6 mps 754 mmHg 28%
    18:00 +32°C° 0 mm 6 mps 754 mmHg 32%
    19:00 +29°C° 0 mm 6 mps 754 mmHg 36%
    20:00 +28°C° 0 mm 6 mps 754 mmHg 41%
    21:00 +27°C° 0 mm 6 mps 754 mmHg 43%
    22:00 +26°C° 0 mm 6 mps 754 mmHg 46%
    23:00 +24°C° 0 mm 7 mps 753 mmHg 48%

    20 January, Saturday

    Time Temperature Precipitation Wind Pressure Humidity
    00:00 +26°C° 0 mm 7 mps 753 mmHg 47%
    01:00 +26°C° 0 mm 7 mps 752 mmHg 45%
    02:00 +26°C° 0 mm 7 mps 752 mmHg 44%
    03:00 +27°C° 0 mm 6 mps 751 mmHg 41%
    04:00 +27°C° 0 mm 5 mps 751 mmHg 39%
    05:00 +27°C° 0 mm 4 mps 751 mmHg 36%
    06:00 +29°C° 0 mm 4 mps 751 mmHg 33%
    07:00 +30°C° 0 mm 3 mps 751 mmHg 30%
    08:00 +33°C° 0 mm 3 mps 751 mmHg 27%
    09:00 +34°C° 0 mm 3 mps 751 mmHg 25%
    10:00 +35°C° 0 mm 3 mps 751 mmHg 23%
    11:00 +36°C° 0 mm 3 mps 751 mmHg 21%
    12:00 +36°C° 0 mm 3 mps 751 mmHg 22%
    13:00 +36°C° 0 mm 4 mps 751 mmHg 23%
    14:00 +36°C° 0 mm 5 mps 751 mmHg 24%
    15:00 +35°C° 0 mm 5 mps 751 mmHg 29%
    16:00 +33°C° 0 mm 6 mps 751 mmHg 34%
    17:00 +32°C° 0 mm 7 mps 751 mmHg 40%
    18:00 +29°C° 0 mm 5 mps 751 mmHg 43%
    19:00 +28°C° 0 mm 3 mps 752 mmHg 47%
    20:00 +27°C° 0 mm 1 mps 752 mmHg 51%
    21:00 +26°C° 0 mm 2 mps 752 mmHg 55%
    22:00 +26°C° 0 mm 3 mps 753 mmHg 58%
    23:00 +25°C° 0 mm 4 mps 753 mmHg 62%

    21 January, Sunday

    Time Temperature Precipitation Wind Pressure Humidity
    00:00 +23°C° 0 mm 4 mps 752 mmHg 64%
    01:00 +24°C° 0 mm 3 mps 752 mmHg 67%
    02:00 +24°C° 0 mm 3 mps 752 mmHg 69%
    03:00 +22°C° 0.1 mm 3 mps 752 mmHg 72%
    04:00 +23°C° 0.1 mm 2 mps 752 mmHg 75%
    05:00 +23°C° 0.1 mm 2 mps 752 mmHg 77%
    06:00 +24°C° 0 mm 2 mps 752 mmHg 72%
    07:00 +25°C° 0 mm 2 mps 752 mmHg 67%
    08:00 +26°C° 0 mm 2 mps 752 mmHg 62%
    09:00 +28°C° 0 mm 2 mps 752 mmHg 54%
    10:00 +30°C° 0 mm 1 mps 752 mmHg 47%
    11:00 +32°C° 0 mm 1 mps 751 mmHg 40%
    12:00 +34°C° 0 mm 2 mps 751 mmHg 39%
    13:00 +34°C° 0 mm 3 mps 750 mmHg 38%
    14:00 +35°C° 0 mm 4 mps 750 mmHg 38%
    15:00 +34°C° 0 mm 4 mps 750 mmHg 40%
    16:00 +33°C° 0 mm 4 mps 750 mmHg 43%
    17:00 +32°C° 0 mm 4 mps 750 mmHg 45%
    18:00 +30°C° 0.9 mm 4 mps 750 mmHg 47%
    19:00 +30°C° 0.9 mm 4 mps 750 mmHg 49%
    20:00 +29°C° 0.9 mm 4 mps 751 mmHg 51%
    21:00 +28°C° 0.9 mm 5 mps 750 mmHg 54%
    22:00 +28°C° 0.9 mm 6 mps 750 mmHg 58%
    23:00 +27°C° 0.9 mm 7 mps 750 mmHg 61%
    Show more